Penn Yan, NY

9:38 AM EST on November 20, 2017 (GMT -0500)
Penn Yan

Weather History for KPEO - July, 2013

Change the Weather History Date:

Monday, July 29, 2013

  Actual Average (KITH) Record (KITH)
Temperature  
Mean Temperature 62 °F -  
Max Temperature 69 °F 78 °F 94 °F (1940)
Min Temperature 57 °F 57 °F 46 °F (1987)
Degree Days  
Heating Degree Days 2    
Growing Degree Days 12 (Base 50)    
Moisture  
Dew Point 56 °F    
Average Humidity 80    
Maximum Humidity 97    
Minimum Humidity 61    
Precipitation  
Precipitation 0.03 in - - ()
Sea Level Pressure  
Sea Level Pressure 30.07 in    
Wind  
Wind Speed 4 mph (SSW)    
Max Wind Speed 10 mph    
Max Gust Speed -    
Visibility 9 miles    
Events Rain    
Averages and records for this station are not official NWS values.
T = Trace of Precipitation, MM = Missing Value Source: NWS Daily Summary

Daily Weather History Graph

Daily Weather History Graph

Search for Another Location

Airport or City:

Trip Planner

Search our weather history database for the weather conditions in past years. The results will help you decide how hot, cold, wet, or windy it might be!

Date:

Astronomy

Jul. 29, 2013 Rise Set
Actual Time 5:57 AM EDT 8:31 PM EDT
Civil Twilight 5:24 AM EDT 9:03 PM EDT
Nautical Twilight 4:44 AM EDT 9:43 PM EDT
Astronomical Twilight 3:58 AM EDT 10:29 PM EDT
Moon No Moon Rise 1:48 PM EDT (7/29)
Length of Visible Light 15h 38m
Length of Day
14h 34m
Waning Gibbous, 51% of the Moon is Illuminated
Jul 29
Waning Gibbous
Jul 29
Last Quarter
Aug 6
New
Aug 14
First Quarter
Aug 20
Full

Hourly Weather History & Observations

Time (EDT) Temp. Dew Point Humidity Pressure Visibility Wind Dir Wind Speed Gust Speed Precip Events Conditions
12:53 AM 59.0 °F 57.0 °F 93% 30.01 in 5.0 mi SSE 3.5 mph - 0.01 in   Clear
1:25 AM 59.0 °F 57.2 °F 94% 30.02 in 5.0 mi South 4.6 mph - N/A   Scattered Clouds
1:31 AM 60.8 °F 57.2 °F 88% 30.02 in 6.0 mi South 4.6 mph - N/A   Mostly Cloudy
1:53 AM 61.0 °F 60.1 °F 97% 30.01 in 6.0 mi South 3.5 mph - N/A   Overcast
2:53 AM 61.0 °F 59.0 °F 93% 30.02 in 6.0 mi SW 3.5 mph - N/A   Scattered Clouds
3:46 AM 60.8 °F 59.0 °F 94% 30.03 in 5.0 mi SSW 4.6 mph - N/A   Mostly Cloudy
3:53 AM 61.0 °F 60.1 °F 97% 30.02 in 6.0 mi SSW 5.8 mph - N/A   Mostly Cloudy
4:19 AM 60.8 °F 57.2 °F 88% 30.03 in 6.0 mi SW 4.6 mph - N/A   Scattered Clouds
4:53 AM 60.1 °F 57.9 °F 93% 30.02 in 10.0 mi SSW 5.8 mph - N/A   Clear
5:53 AM 57.9 °F 57.0 °F 97% 30.03 in 9.0 mi SW 6.9 mph - N/A   Clear
6:53 AM 59.0 °F 57.0 °F 93% 30.04 in 10.0 mi SSW 4.6 mph - N/A   Clear
7:53 AM 62.1 °F 57.0 °F 84% 30.04 in 10.0 mi SSW 6.9 mph - N/A   Clear
8:53 AM 62.1 °F 55.0 °F 78% 30.06 in 10.0 mi SSW 6.9 mph - N/A   Clear
9:53 AM 64.9 °F 54.0 °F 68% 30.06 in 10.0 mi SW 8.1 mph - N/A   Clear
10:53 AM 66.9 °F 54.0 °F 63% 30.06 in 10.0 mi SSW 5.8 mph - N/A   Scattered Clouds
11:53 AM 66.9 °F 53.1 °F 61% 30.07 in 10.0 mi Variable 3.5 mph - N/A   Mostly Cloudy
12:53 PM 66.9 °F 54.0 °F 63% 30.08 in 10.0 mi SSW 5.8 mph - N/A   Overcast
1:53 PM 68.0 °F 55.0 °F 63% 30.08 in 10.0 mi Variable 4.6 mph - N/A   Overcast
2:53 PM 66.9 °F 57.0 °F 70% 30.09 in 10.0 mi South 3.5 mph - 0.02 in   Overcast
3:53 PM 68.0 °F 55.0 °F 63% 30.09 in 10.0 mi Calm Calm - 0.00 in   Overcast
4:53 PM 66.9 °F 57.0 °F 70% 30.09 in 10.0 mi Calm Calm - 0.00 in Rain Light Rain
5:53 PM 64.0 °F 55.9 °F 75% 30.10 in 10.0 mi Calm Calm - 0.00 in   Overcast
6:53 PM 66.0 °F 55.0 °F 68% 30.10 in 10.0 mi SW 3.5 mph - N/A   Overcast
7:53 PM 66.0 °F 55.9 °F 70% 30.11 in 10.0 mi Calm Calm - N/A   Overcast
8:53 PM 62.1 °F 57.9 °F 86% 30.12 in 10.0 mi SSE 3.5 mph - 0.00 in Rain Light Rain
9:53 PM 60.1 °F 55.9 °F 86% 30.14 in 10.0 mi Variable 5.8 mph - 0.00 in   Clear
10:53 PM 64.0 °F 54.0 °F 70% 30.14 in 10.0 mi WSW 10.4 mph - N/A   Scattered Clouds
11:53 PM 61.0 °F 55.0 °F 81% 30.15 in 10.0 mi SW 5.8 mph - N/A   Clear